Location: Bagnara
(41.0500°N, 14.7833°E)
Time: 09:31:56
(UTC+00:00)

SL-19 R/B - Pass Details

Date: 20 June 2021
Orbit: 796 x 1009 km, 99.4° (Epoch: 01 August)

Event Time Altitude Azimuth Distance (km) Brightness Sun altitude
Rises 00:43:46 0° 18° (NNE) 3,325 8.8 -21.4°
Reaches altitude 10° 00:46:06 10° 21° (NNE) 2,404 7.7 -21.2°
Maximum altitude 00:51:21 62° 103° (ESE) 931 4.4 -20.7°
Enters shadow 00:53:42 33° 171° (S) 1,374 4.9 -20.5°
